SKW4072 CYYC-KSLC

Flight info

Callsign SKW4072
Flight time 1h 20m
Altitude 35000
Route STAMP2/35L UBVAL Q927 SEKOM DCT KEETA DCT DBS CARTR1
Aircraft E75L/M-SDE3GILORVW/S

Departure

Time 2026-05-06 01:28
Airport Calgary International Airport (CYYC)

Arrival

Time 2026-05-06 02:49
Airport Salt Lake City International Airport (KSLC)
Time Latitude Longitude Altitude Speed Heading
2026-05-06 01:03 51.12928 -113.99782 3557 ft 0 kts 26°
2026-05-06 01:11 51.12911 -113.99793 3557 ft 4 kts 15°
2026-05-06 01:11 51.12885 -113.99797 3557 ft 4 kts 352°
2026-05-06 01:12 51.12860 -113.99784 3555 ft 4 kts 329°
2026-05-06 01:12 51.12841 -113.99756 3557 ft 4 kts 297°
2026-05-06 01:12 51.12837 -113.99735 3557 ft 0 kts 269°
2026-05-06 01:14 51.12837 -113.99745 3557 ft 2 kts 269°
2026-05-06 01:15 51.12836 -113.99755 3557 ft 0 kts 265°
2026-05-06 01:16 51.12836 -113.99762 3557 ft 2 kts 265°
2026-05-06 01:16 51.12834 -113.99810 3557 ft 7 kts 265°
2026-05-06 01:16 51.12805 -113.99876 3557 ft 9 kts 186°
2026-05-06 01:16 51.12735 -113.99877 3557 ft 11 kts 186°
2026-05-06 01:17 51.12700 -113.99973 3557 ft 12 kts 268°
2026-05-06 01:17 51.12694 -114.00117 3556 ft 14 kts 240°
2026-05-06 01:17 51.12617 -114.00173 3555 ft 11 kts 243°
2026-05-06 01:17 51.12613 -114.00307 3557 ft 13 kts 270°
2026-05-06 01:18 51.12613 -114.00467 3557 ft 16 kts 270°
2026-05-06 01:18 51.12613 -114.00651 3557 ft 18 kts 270°
2026-05-06 01:18 51.12613 -114.00858 3557 ft 20 kts 270°
2026-05-06 01:18 51.12611 -114.01080 3557 ft 21 kts 265°
2026-05-06 01:19 51.12602 -114.01308 3557 ft 21 kts 270°
2026-05-06 01:19 51.12601 -114.01488 3557 ft 6 kts 263°
2026-05-06 01:19 51.12581 -114.01521 3554 ft 7 kts 216°
2026-05-06 01:19 51.12517 -114.01567 3554 ft 14 kts 192°
2026-05-06 01:20 51.12408 -114.01567 3552 ft 17 kts 180°
2026-05-06 01:20 51.12289 -114.01567 3557 ft 18 kts 179°
2026-05-06 01:20 51.12166 -114.01577 3556 ft 16 kts 190°
2026-05-06 01:20 51.12067 -114.01649 3557 ft 16 kts 210°
2026-05-06 01:21 51.12000 -114.01710 3557 ft 17 kts 210°
2026-05-06 01:21 51.11893 -114.01795 3555 ft 18 kts 188°
2026-05-06 01:21 51.11726 -114.01795 3557 ft 19 kts 181°
2026-05-06 01:21 51.11594 -114.01795 3555 ft 19 kts 180°
2026-05-06 01:22 51.11456 -114.01796 3557 ft 20 kts 180°
2026-05-06 01:22 51.11315 -114.01798 3556 ft 21 kts 180°
2026-05-06 01:22 51.11170 -114.01797 3557 ft 21 kts 179°
2026-05-06 01:22 51.11072 -114.01794 3557 ft 21 kts 180°
2026-05-06 01:23 51.10920 -114.01799 3557 ft 22 kts 180°
2026-05-06 01:23 51.10764 -114.01797 3557 ft 23 kts 180°
2026-05-06 01:23 51.10605 -114.01795 3557 ft 23 kts 180°
2026-05-06 01:23 51.10443 -114.01796 3557 ft 23 kts 180°
2026-05-06 01:24 51.10224 -114.01795 3555 ft 24 kts 182°
2026-05-06 01:24 51.10056 -114.01798 3557 ft 24 kts 180°
2026-05-06 01:24 51.09942 -114.01798 3557 ft 24 kts 181°
2026-05-06 01:24 51.09776 -114.01798 3556 ft 24 kts 180°
2026-05-06 01:25 51.09690 -114.01905 3557 ft 16 kts 271°
2026-05-06 01:25 51.09691 -114.01948 3557 ft 0 kts 271°
2026-05-06 01:26 51.09691 -114.01951 3557 ft 2 kts 271°
2026-05-06 01:27 51.09690 -114.02024 3558 ft 11 kts 269°
2026-05-06 01:27 51.09715 -114.02136 3559 ft 8 kts 348°
2026-05-06 01:27 51.09741 -114.02138 3559 ft 0 kts 360°
2026-05-06 01:28 51.09906 -114.02137 3559 ft 56 kts
2026-05-06 01:28 51.10520 -114.02139 3554 ft 119 kts
2026-05-06 01:28 51.11511 -114.02148 3705 ft 155 kts
2026-05-06 01:28 51.12632 -114.02181 4346 ft 166 kts 358°
2026-05-06 01:29 51.13769 -114.02284 5129 ft 159 kts 359°
2026-05-06 01:29 51.14893 -114.02354 5564 ft 166 kts 360°
2026-05-06 01:29 51.16058 -114.02015 5813 ft 181 kts 29°
2026-05-06 01:29 51.16934 -114.00505 5965 ft 202 kts 71°
2026-05-06 01:30 51.17030 -113.98203 6369 ft 216 kts 90°
2026-05-06 01:30 51.17016 -113.95807 6910 ft 223 kts 87°
2026-05-06 01:30 51.16955 -113.93221 7151 ft 246 kts 97°
2026-05-06 01:30 51.16211 -113.90646 7381 ft 271 kts 129°
2026-05-06 01:31 51.14782 -113.88549 7671 ft 286 kts 141°
2026-05-06 01:31 51.12980 -113.87177 8165 ft 293 kts 169°
2026-05-06 01:31 51.10943 -113.86886 8737 ft 296 kts 179°
2026-05-06 01:31 51.08865 -113.86878 9255 ft 301 kts 182°
2026-05-06 01:32 51.06753 -113.86909 9780 ft 306 kts 182°
2026-05-06 01:32 51.04595 -113.86942 10131 ft 317 kts 182°
2026-05-06 01:32 51.02358 -113.87007 10212 ft 335 kts 183°
2026-05-06 01:32 50.99980 -113.87098 10465 ft 345 kts 183°
2026-05-06 01:33 50.97564 -113.87157 10896 ft 349 kts 182°
2026-05-06 01:33 50.95126 -113.87195 11392 ft 352 kts 182°
2026-05-06 01:33 50.92664 -113.87239 11857 ft 356 kts 182°
2026-05-06 01:33 50.90174 -113.87296 12346 ft 360 kts 182°
2026-05-06 01:34 50.87640 -113.87366 12974 ft 367 kts 183°
2026-05-06 01:34 50.85066 -113.87434 13770 ft 373 kts 182°
2026-05-06 01:34 50.82481 -113.87501 14500 ft 380 kts 182°
2026-05-06 01:34 50.79808 -113.87585 15196 ft 389 kts 182°
2026-05-06 01:35 50.77078 -113.87695 15896 ft 397 kts 182°
2026-05-06 01:35 50.74285 -113.87820 16577 ft 406 kts 182°
2026-05-06 01:35 50.71425 -113.87963 17239 ft 415 kts 182°
2026-05-06 01:35 50.68510 -113.88131 17915 ft 424 kts 182°
2026-05-06 01:36 50.65529 -113.88313 18583 ft 433 kts 182°
2026-05-06 01:36 50.62504 -113.88484 19287 ft 437 kts 179°
2026-05-06 01:36 50.59423 -113.88088 19643 ft 451 kts 168°
2026-05-06 01:36 50.56376 -113.87065 20260 ft 456 kts 164°
2026-05-06 01:37 50.53263 -113.85975 20975 ft 460 kts 165°
2026-05-06 01:37 50.50103 -113.84941 21321 ft 468 kts 166°
2026-05-06 01:37 50.46922 -113.83945 21239 ft 465 kts 167°
2026-05-06 01:37 50.43759 -113.82972 21243 ft 462 kts 167°
2026-05-06 01:38 50.40603 -113.82010 21235 ft 462 kts 167°
2026-05-06 01:38 50.37446 -113.81046 21228 ft 462 kts 167°
2026-05-06 01:38 50.34294 -113.80091 21237 ft 462 kts 167°
2026-05-06 01:38 50.31132 -113.79131 21241 ft 462 kts 167°
2026-05-06 01:39 50.27976 -113.78175 21257 ft 463 kts 167°
2026-05-06 01:39 50.24848 -113.77227 21269 ft 464 kts 167°
2026-05-06 01:39 50.21676 -113.76270 21250 ft 464 kts 167°
2026-05-06 01:39 50.18501 -113.75313 21220 ft 465 kts 167°
2026-05-06 01:40 50.15331 -113.74359 21234 ft 464 kts 167°
2026-05-06 01:40 50.12161 -113.73401 21230 ft 464 kts 167°
2026-05-06 01:40 50.08993 -113.72447 21231 ft 464 kts 167°
2026-05-06 01:40 50.05820 -113.71495 21230 ft 464 kts 167°
2026-05-06 01:41 50.02653 -113.70547 21655 ft 462 kts 167°
2026-05-06 01:41 49.99487 -113.69602 22333 ft 465 kts 167°
2026-05-06 01:41 49.96292 -113.68652 22891 ft 470 kts 167°
2026-05-06 01:41 49.93098 -113.67704 23416 ft 476 kts 167°
2026-05-06 01:42 49.89830 -113.66733 23929 ft 481 kts 167°
2026-05-06 01:42 49.86530 -113.65755 24375 ft 486 kts 167°
2026-05-06 01:42 49.83184 -113.64763 24834 ft 491 kts 167°
2026-05-06 01:42 49.79812 -113.63766 25310 ft 496 kts 167°
2026-05-06 01:43 49.76406 -113.62759 25802 ft 500 kts 167°
2026-05-06 01:43 49.72994 -113.61754 26446 ft 499 kts 167°
2026-05-06 01:43 49.69590 -113.60754 27077 ft 498 kts 167°
2026-05-06 01:43 49.66181 -113.59751 27650 ft 499 kts 167°
2026-05-06 01:44 49.62823 -113.58763 28215 ft 498 kts 167°
2026-05-06 01:44 49.59427 -113.57708 28818 ft 498 kts 166°
2026-05-06 01:44 49.56037 -113.56601 29341 ft 499 kts 166°
2026-05-06 01:44 49.52635 -113.55496 29903 ft 499 kts 166°
2026-05-06 01:45 49.49234 -113.54399 30430 ft 499 kts 166°
2026-05-06 01:45 49.45830 -113.53312 30882 ft 500 kts 166°
2026-05-06 01:45 49.42423 -113.52226 31340 ft 500 kts 166°
2026-05-06 01:45 49.39014 -113.51141 31775 ft 500 kts 166°
2026-05-06 01:46 49.35600 -113.50059 32200 ft 502 kts 165°
2026-05-06 01:46 49.32174 -113.48975 32592 ft 503 kts 166°
2026-05-06 01:46 49.28752 -113.47895 33014 ft 503 kts 165°
2026-05-06 01:46 49.25374 -113.46828 33419 ft 503 kts 165°
2026-05-06 01:47 49.21945 -113.45746 33779 ft 504 kts 165°
2026-05-06 01:47 49.18508 -113.44663 34170 ft 504 kts 165°
2026-05-06 01:47 49.15078 -113.43580 34557 ft 503 kts 165°
2026-05-06 01:47 49.11657 -113.42507 34929 ft 502 kts 165°
2026-05-06 01:48 49.08251 -113.41442 35343 ft 496 kts 165°
2026-05-06 01:48 49.04838 -113.40375 35331 ft 506 kts 165°
2026-05-06 01:48 48.97822 -113.38178 35255 ft 525 kts 165°
2026-05-06 01:49 48.90580 -113.35911 35180 ft 543 kts 166°
2026-05-06 01:49 48.83086 -113.33589 35193 ft 556 kts 166°
2026-05-06 01:50 48.75491 -113.31244 35189 ft 556 kts 166°
2026-05-06 01:50 48.67908 -113.28900 35201 ft 557 kts 166°
2026-05-06 01:51 48.60472 -113.26611 35198 ft 557 kts 166°
2026-05-06 01:51 48.52884 -113.24287 35198 ft 556 kts 166°
2026-05-06 01:52 48.45291 -113.21957 35185 ft 558 kts 166°
2026-05-06 01:52 48.37683 -113.19635 35200 ft 557 kts 166°
2026-05-06 01:53 48.30128 -113.17342 35203 ft 558 kts 166°
2026-05-06 01:53 48.22516 -113.15031 35201 ft 558 kts 166°
2026-05-06 01:54 48.14898 -113.12723 35213 ft 559 kts 166°
2026-05-06 01:54 48.07279 -113.10428 35212 ft 558 kts 166°
2026-05-06 01:55 47.99650 -113.08133 35215 ft 559 kts 166°
2026-05-06 01:55 47.92086 -113.05864 35236 ft 557 kts 166°
2026-05-06 01:56 47.84476 -113.03596 35225 ft 558 kts 166°
2026-05-06 01:56 47.76855 -113.01325 35233 ft 559 kts 166°
2026-05-06 01:57 47.69225 -112.99060 35212 ft 558 kts 166°
2026-05-06 01:57 47.61595 -112.96801 35253 ft 559 kts 166°
2026-05-06 01:58 47.54009 -112.94560 35225 ft 559 kts 166°
2026-05-06 01:58 47.46368 -112.92312 35197 ft 560 kts 166°
2026-05-06 01:59 47.38725 -112.90070 35216 ft 560 kts 166°
2026-05-06 01:59 47.31089 -112.87917 35239 ft 560 kts 168°
2026-05-06 02:00 47.23369 -112.86282 35198 ft 560 kts 169°
2026-05-06 02:00 47.15705 -112.84618 35147 ft 558 kts 169°
2026-05-06 02:01 47.08021 -112.82913 35195 ft 559 kts 169°
2026-05-06 02:01 47.00318 -112.81213 35207 ft 560 kts 169°
2026-05-06 02:02 46.92632 -112.79520 35196 ft 559 kts 169°
2026-05-06 02:02 46.84978 -112.77832 35183 ft 559 kts 169°
2026-05-06 02:03 46.77285 -112.76137 35197 ft 559 kts 169°
2026-05-06 02:03 46.69602 -112.74456 35189 ft 557 kts 169°
2026-05-06 02:04 46.61930 -112.72783 35187 ft 558 kts 169°
2026-05-06 02:04 46.54257 -112.71113 35177 ft 557 kts 169°
2026-05-06 02:05 46.46636 -112.69459 35184 ft 558 kts 169°
2026-05-06 02:05 46.38972 -112.67799 35178 ft 557 kts 169°
2026-05-06 02:06 46.31305 -112.66143 35174 ft 556 kts 169°
2026-05-06 02:06 46.23653 -112.64494 35196 ft 556 kts 169°
2026-05-06 02:07 46.16044 -112.62861 35191 ft 556 kts 169°
2026-05-06 02:07 46.08406 -112.61227 35189 ft 554 kts 169°
2026-05-06 02:08 46.00767 -112.59594 35175 ft 555 kts 169°
2026-05-06 02:08 45.93129 -112.57967 35180 ft 555 kts 170°
2026-05-06 02:09 45.85506 -112.56354 35155 ft 554 kts 170°
2026-05-06 02:09 45.77931 -112.54750 35141 ft 554 kts 170°
2026-05-06 02:10 45.70304 -112.53137 35128 ft 555 kts 170°
2026-05-06 02:10 45.62669 -112.51529 35137 ft 554 kts 170°
2026-05-06 02:11 45.55077 -112.49936 35108 ft 555 kts 170°
2026-05-06 02:11 45.47457 -112.48339 35108 ft 553 kts 171°
2026-05-06 02:12 45.39841 -112.46754 35102 ft 553 kts 170°
2026-05-06 02:12 45.32220 -112.45163 35114 ft 554 kts 171°
2026-05-06 02:13 45.24622 -112.43585 35101 ft 552 kts 171°
2026-05-06 02:13 45.17068 -112.42021 35090 ft 552 kts 171°
2026-05-06 02:14 45.09489 -112.40453 35082 ft 548 kts 171°
2026-05-06 02:14 45.01945 -112.38902 35078 ft 550 kts 171°
2026-05-06 02:15 44.94356 -112.37341 35074 ft 552 kts 171°
2026-05-06 02:15 44.86848 -112.35802 35068 ft 546 kts 171°
2026-05-06 02:16 44.79312 -112.34261 35049 ft 547 kts 171°
2026-05-06 02:16 44.71782 -112.32726 35048 ft 545 kts 171°
2026-05-06 02:17 44.64304 -112.31205 35040 ft 542 kts 171°
2026-05-06 02:17 44.56870 -112.29700 35036 ft 544 kts 171°
2026-05-06 02:18 44.49383 -112.28190 35016 ft 544 kts 171°
2026-05-06 02:18 44.41895 -112.26676 34936 ft 543 kts 171°
2026-05-06 02:19 44.34401 -112.25167 34988 ft 545 kts 171°
2026-05-06 02:19 44.26959 -112.23668 34978 ft 539 kts 171°
2026-05-06 02:20 44.15850 -112.21445 34964 ft 540 kts 171°
2026-05-06 02:21 44.08404 -112.19935 34942 ft 540 kts 169°
2026-05-06 02:21 44.04668 -112.19412 34938 ft 540 kts 184°
2026-05-06 02:21 44.01005 -112.20365 34945 ft 533 kts 204°
2026-05-06 02:22 43.93964 -112.23715 34987 ft 538 kts 194°
2026-05-06 02:22 43.86537 -112.24275 34922 ft 540 kts 175°
2026-05-06 02:23 43.79136 -112.22510 34914 ft 540 kts 166°
2026-05-06 02:23 43.71831 -112.20065 34872 ft 539 kts 165°
2026-05-06 02:24 43.64558 -112.17556 34880 ft 539 kts 165°
2026-05-06 02:24 43.57279 -112.15049 34960 ft 540 kts 165°
2026-05-06 02:25 43.50036 -112.12565 34955 ft 540 kts 165°
2026-05-06 02:25 43.42751 -112.10069 34954 ft 540 kts 165°
2026-05-06 02:26 43.35454 -112.07577 34927 ft 541 kts 165°
2026-05-06 02:26 43.28145 -112.05087 34913 ft 541 kts 165°
2026-05-06 02:27 43.20833 -112.02605 34902 ft 541 kts 165°
2026-05-06 02:27 43.13537 -112.00136 34870 ft 540 kts 165°
2026-05-06 02:28 43.06271 -111.97685 34843 ft 543 kts 165°
2026-05-06 02:28 42.98969 -111.95225 34852 ft 537 kts 165°
2026-05-06 02:29 42.91704 -111.92782 34844 ft 538 kts 165°
2026-05-06 02:29 42.84436 -111.90343 34803 ft 537 kts 165°
2026-05-06 02:30 42.77282 -111.87951 34832 ft 533 kts 165°
2026-05-06 02:30 42.70052 -111.85686 34814 ft 533 kts 174°
2026-05-06 02:30 42.66361 -111.85681 34844 ft 531 kts 187°
2026-05-06 02:31 42.62703 -111.86332 34852 ft 530 kts 191°
2026-05-06 02:31 42.55418 -111.87806 34799 ft 530 kts 190°
2026-05-06 02:32 42.48109 -111.89125 34801 ft 530 kts 190°
2026-05-06 02:32 42.40889 -111.90385 34784 ft 525 kts 190°
2026-05-06 02:32 42.37300 -111.91003 34309 ft 515 kts 189°
2026-05-06 02:33 42.33795 -111.91602 33842 ft 504 kts 189°
2026-05-06 02:33 42.31483 -111.91998 33269 ft 505 kts 189°
2026-05-06 02:33 42.23465 -111.93393 31768 ft 489 kts 190°
2026-05-06 02:34 42.20098 -111.93983 31070 ft 486 kts 190°
2026-05-06 02:34 42.16810 -111.94556 30446 ft 481 kts 190°
2026-05-06 02:34 42.13501 -111.95133 29801 ft 477 kts 190°
2026-05-06 02:34 42.10231 -111.95700 29185 ft 471 kts 190°
2026-05-06 02:35 42.06997 -111.96257 28518 ft 468 kts 190°
2026-05-06 02:35 42.03770 -111.96815 27988 ft 467 kts 190°
2026-05-06 02:35 42.00531 -111.97374 27334 ft 472 kts 190°
2026-05-06 02:35 41.97269 -111.97931 26712 ft 474 kts 190°
2026-05-06 02:36 41.94039 -111.98480 26112 ft 475 kts 190°
2026-05-06 02:36 41.90755 -111.99039 25475 ft 476 kts 190°
2026-05-06 02:36 41.87472 -111.99597 24848 ft 475 kts 190°
2026-05-06 02:36 41.84212 -112.00148 24249 ft 469 kts 189°
2026-05-06 02:37 41.80995 -112.00687 23594 ft 463 kts 190°
2026-05-06 02:37 41.77824 -112.01220 22967 ft 455 kts 189°
2026-05-06 02:37 41.74712 -112.01709 22399 ft 447 kts 189°
2026-05-06 02:37 41.71645 -112.02179 21804 ft 441 kts 189°
2026-05-06 02:38 41.68607 -112.02650 21229 ft 438 kts 189°
2026-05-06 02:38 41.65633 -112.03080 20640 ft 434 kts 186°
2026-05-06 02:38 41.62641 -112.03190 20107 ft 427 kts 182°
2026-05-06 02:38 41.59682 -112.03148 19529 ft 422 kts 181°
2026-05-06 02:39 41.56768 -112.03097 19000 ft 416 kts 182°
2026-05-06 02:39 41.53900 -112.03061 18572 ft 412 kts 182°
2026-05-06 02:39 41.51037 -112.03032 17973 ft 410 kts 182°
2026-05-06 02:39 41.48213 -112.03007 17390 ft 403 kts 182°
2026-05-06 02:40 41.45415 -112.02989 16847 ft 401 kts 182°
2026-05-06 02:40 41.42665 -112.02976 16344 ft 399 kts 182°
2026-05-06 02:40 41.39894 -112.02962 15815 ft 397 kts 182°
2026-05-06 02:40 41.37139 -112.02951 15306 ft 395 kts 182°
2026-05-06 02:41 41.34400 -112.02936 14794 ft 392 kts 182°
2026-05-06 02:41 41.31701 -112.02923 14282 ft 384 kts 182°
2026-05-06 02:41 41.29055 -112.02910 13786 ft 377 kts 182°
2026-05-06 02:41 41.26459 -112.02899 13253 ft 366 kts 181°
2026-05-06 02:42 41.23975 -112.02851 12823 ft 349 kts 178°
2026-05-06 02:42 41.21634 -112.02583 12366 ft 336 kts 175°
2026-05-06 02:42 41.19348 -112.02250 11925 ft 324 kts 175°
2026-05-06 02:42 41.17139 -112.01950 11518 ft 316 kts 175°
2026-05-06 02:43 41.14951 -112.01683 11085 ft 315 kts 176°
2026-05-06 02:43 41.12784 -112.01430 10610 ft 309 kts 176°
2026-05-06 02:43 41.10673 -112.01183 10182 ft 301 kts 175°
2026-05-06 02:43 41.08605 -112.00938 9699 ft 295 kts 175°
2026-05-06 02:44 41.06582 -112.00699 9262 ft 287 kts 175°
2026-05-06 02:44 41.04622 -112.00471 8890 ft 279 kts 175°
2026-05-06 02:44 41.02737 -112.00251 8498 ft 272 kts 175°
2026-05-06 02:44 41.00872 -112.00029 8106 ft 266 kts 175°
2026-05-06 02:45 40.99061 -111.99831 7719 ft 256 kts 176°
2026-05-06 02:45 40.97311 -111.99636 7342 ft 249 kts 175°
2026-05-06 02:45 40.95614 -111.99435 6991 ft 242 kts 175°
2026-05-06 02:45 40.93960 -111.99241 6700 ft 236 kts 175°
2026-05-06 02:46 40.92342 -111.99050 6442 ft 230 kts 175°
2026-05-06 02:46 40.90795 -111.98869 6215 ft 215 kts 175°
2026-05-06 02:46 40.89366 -111.98699 5976 ft 196 kts 175°
2026-05-06 02:46 40.88096 -111.98552 5788 ft 177 kts 175°
2026-05-06 02:47 40.86937 -111.98417 5523 ft 159 kts 175°
2026-05-06 02:47 40.85849 -111.98288 5319 ft 157 kts 175°
2026-05-06 02:47 40.84766 -111.98163 5102 ft 156 kts 175°
2026-05-06 02:47 40.83699 -111.98040 4889 ft 151 kts 176°
2026-05-06 02:48 40.82680 -111.97923 4658 ft 143 kts 175°
2026-05-06 02:48 40.81698 -111.97810 4452 ft 140 kts 175°
2026-05-06 02:48 40.80747 -111.97697 4296 ft 134 kts 176°
2026-05-06 02:48 40.79873 -111.97597 4228 ft 114 kts 174°
2026-05-06 02:49 40.79209 -111.97515 4229 ft 78 kts 175°
2026-05-06 02:49 40.78790 -111.97469 4230 ft 45 kts 175°
2026-05-06 02:49 40.78549 -111.97514 4228 ft 26 kts 199°
2026-05-06 02:49 40.78475 -111.97557 4228 ft 0 kts 209°
2026-05-06 02:50 40.78473 -111.97558 4228 ft 1 kts 209°
2026-05-06 02:50 40.78467 -111.97563 4228 ft 0 kts 209°
2026-05-06 02:50 40.78460 -111.97575 4228 ft 4 kts 250°
2026-05-06 02:50 40.78473 -111.97629 4228 ft 9 kts 312°
2026-05-06 02:51 40.78542 -111.97658 4229 ft 13 kts 355°
2026-05-06 02:51 40.78638 -111.97669 4229 ft 15 kts 355°
2026-05-06 02:51 40.78738 -111.97687 4229 ft 13 kts 326°
2026-05-06 02:51 40.78755 -111.97787 4229 ft 12 kts 261°
2026-05-06 02:52 40.78745 -111.97899 4229 ft 13 kts 265°
2026-05-06 02:52 40.78737 -111.98021 4229 ft 9 kts 265°
2026-05-06 02:52 40.78729 -111.98047 4229 ft 1 kts 206°
2026-05-06 02:52 40.78721 -111.98046 4229 ft 2 kts 174°
2026-05-06 02:53 40.78699 -111.98043 4229 ft 4 kts 175°
2026-05-06 02:53 40.78682 -111.98038 4229 ft 2 kts 153°
2026-05-06 02:53 40.78668 -111.98030 4229 ft 1 kts 156°
2026-05-06 02:53 40.78662 -111.98027 4229 ft 1 kts 174°
2026-05-06 02:54 40.78653 -111.98027 4229 ft 0 kts 176°